Weather Service Report


032 
ASUS45 KSLC 150210
RWRUT 

UTAH REGIONAL WEATHER ROUNDUP
NATIONAL WEATHER SERVICE SALT LAKE CITY UT
800 PM MDT SUN SEP 14 2014

UTZ001>011-023>025-150300-

NORTHERN UTAH
  
CITY           SKY/WX    TMP DP  RH WIND       PRES   REMARKS
HILL AFB       PTCLDY    78  38  23 N2        30.04R                  
LOGAN          CLEAR     71  49  45 SE6       30.01S                  
OGDEN          PTCLDY    76  39  26 SE5       30.00S                  
PROVO AIRPORT  MOCLDY    72  54  53 VRB3      30.02S                  
SALT LAKE CITY PTCLDY    78  38  23 N5        29.98S                  
VERNAL         MOCLDY    69  40  34 NW6       30.08S                  
WENDOVER       MOCLDY    77  32  19 NW6       29.99S                  
HEBER CITY     MOCLDY    63  46  55 SE5       30.10R                  
WEST JORDAN    CLEAR     75  39  27 SW3       30.02F                  

$$

UTZ012>022-026-027-150300-

SOUTHERN UTAH
  
CITY           SKY/WX    TMP DP  RH WIND       PRES   REMARKS
BRYCE CANYON   PTCLDY    58  47  66 SW7       30.25S                  
CEDAR CITY     CLEAR     74  36  25 SW9       30.09S                  
MILFORD        PTCLDY    76  37  24 SW9       30.02S                  
MOAB/CYNLANDS  CLEAR     79  39  23 CALM      29.99R                  
PRICE          MOCLDY    76  30  18 W5        30.11S                  
ST GEORGE      MOCLDY    91  43  18 CALM      29.90R                  
KANAB            N/A     79  37  22 W6        30.07R                  

$$

REGIONAL REPORTS     COLORADO/ARIZONA
  
CITY           SKY/WX    TMP DP  RH WIND       PRES   REMARKS
CRAIG, CO      MOCLDY    63  38  39 SW9       30.15R                  
GRAND JUNCTION CLEAR     69  40  34 NE5       30.03S                  
RIFLE          PTCLDY    73  36  25 W5        30.10R                  
MONTROSE       PTCLDY    70  47  43 S3        30.14R                  
CORTEZ         CLEAR     66  44  45 S3        30.13R                  
PAGE, AZ       CLEAR     86  36  16 S5        29.98S                  
GRAND CANYON   MOCLDY    63  49  60 CALM      30.19R                  
KINGMAN        CLEAR     85  45  24 W5        29.93S                  
FLAGSTAFF      PTCLDY    62  50  64 SW3       30.23R                  

$$

REGIONAL REPORTS    NEVADA/IDAHO/WYOMING
  
CITY           SKY/WX    TMP DP  RH WIND       PRES   REMARKS
LAS VEGAS, NV  PTCLDY    97  42  15 S7        29.77S HX  93           
ELY            PTCLDY    69  34  27 S6        30.11S                  
ELKO           CLEAR     75  24  15 W6        30.03R                  
POCATELLO, ID  CLEAR     74  27  17 S9        30.02R                  
BURLEY         CLEAR     67  46  47 SE3       29.98S                  
EVANSTON, WY   PTCLDY    65  31  28 W8        30.22R                  
ROCK SPRINGS   PTCLDY    67  26  21 NW10      30.17R                  

$$

Return to Home page


Western Regional Climate Center, wrcc@dri.edu